Location: Bukit Takuja
(3.2000°N, 113.2333°E)
Time: 11:25:12
(UTC+00:00)

Daily predictions for brighter satellites

Satellite Brightness Start Highest point End
(mag) Time Altitude Azimuth Time Altitude Azimuth Time Altitude Azimuth
ARIANE 5 R/B 4.0 12:04:51 10° SW 12:05:33 12° SW 12:05:33 12° SW
Meteor 2-9 Rocket 3.9 12:05:19 10° S 12:10:39 88° E 12:15:57 10° N
CZ-3B Rocket 4.4 12:15:38 10° WNW 12:20:54 38° N 21:58:51 10° ESE
ADEOS 3.8 12:22:55 67° WNW 12:22:55 67° WNW 12:27:37 10° NNW
Ariane 44P Rocket 3.8 12:19:47 10° W 12:23:47 78° S 12:25:00 64° ESE
H-II Stage 2 4.2 12:18:40 10° WNW 12:23:55 79° SSW 13:12:48 10° ESE
USA 229 DEB 4.0 12:19:56 10° NNW 12:28:00 69° ENE 12:28:00 69° ENE
USA 229 4.0 12:20:11 10° NNW 12:28:06 68° ENE 12:28:06 68° ENE
SPOT 1/Viking Rocket 4.4 12:35:00 47° WNW 12:35:00 47° WNW 12:39:18 10° NNW
ATLAS 2A CENTAUR R/B 4.2 12:32:04 10° WNW 12:37:12 86° NNE 12:38:20 72° ESE
ARIANE 5 R/B 4.2 12:41:30 10° W 12:46:39 28° WSW 12:46:39 28° WSW
CZ-3C R/B 3.4 12:45:52 10° WSW 12:49:07 23° W 12:49:07 23° W
ARIANE 5 R/B 3.9 19:38:37 87° SW 19:38:48 89° S 19:45:25 10° E
Cosmos 2297 Rocket 4.0 19:45:33 27° E 19:45:33 27° E 19:49:17 10° NE
BLOCK DM-SL R/B 3.5 20:00:08 32° ESE 20:00:08 32° ESE 20:06:05 10° E
Cosmos 2322 Rocket 3.5 20:02:31 18° NNE 20:06:06 37° ENE 20:11:13 10° SE
USA 238 4.5 20:12:36 34° N 20:12:36 34° N 20:15:56 10° NNE
Delta 2 Rocket 4.4 20:15:56 75° W 20:16:46 84° NNW 20:26:12 10° ENE
ARIANE 5 DEB (SYLDA) 4.3 20:17:40 49° SE 20:17:40 49° SE 20:23:55 10° ESE
DMSP B5D2-2 4.2 20:23:00 10° SSE 20:28:09 70° ENE 20:33:19 10° N
Cosmos 2333 Rocket 3.1 20:23:56 10° N 20:29:20 46° ENE 20:34:42 10° SSE
SL-16 R/B 3.6 20:33:01 24° S 20:33:01 24° S 20:35:13 10° S
Cosmos 540 Rocket 4.4 20:25:27 10° N 20:30:20 45° ENE 20:35:13 10° SSE
Meteosat 1 Rocket2 4.1 20:34:34 35° NE 20:34:34 35° NE 20:37:21 10° NE
GPS 2-17 Rocket1 3.2 20:37:28 66° NE 20:37:28 66° NE 20:41:30 10° ENE
OAO 3 Rocket 3.7 20:39:59 46° SSE 20:39:59 46° SSE 20:43:28 10° SE
H-2A R/B 3.4 20:34:24 10° N 20:36:59 27° NNW 20:36:59 27° NNW
Cosmos 1782 3.6 20:39:51 29° SSE 20:41:18 45° E 20:44:54 10° NNE
ATLAS 2A CENTAUR R/B 3.8 20:45:08 15° SSE 20:46:14 18° SE 20:49:59 10° E
Yuri Rocket 4.2 20:43:26 43° WNW 20:46:21 73° SSW 20:52:39 10° SE
Cosmos 1763 Rocket 3.3 20:47:37 29° NNW 20:50:17 68° WSW 20:55:31 10° S
SL-4 R/B 4.0 20:52:30 13° SSE 20:54:32 21° SE 20:57:15 10° ENE
GPS 2-12 Rocket1 3.0 20:57:59 56° W 20:58:50 71° SSW 21:03:31 10° ESE
SeaSat 1 3.7 20:55:21 10° SE 20:59:56 41° ENE 21:04:30 10° N
Cosmos 1933 4.0 20:56:23 10° S 21:00:13 54° E 21:04:02 10° NNE
Tiangong 1.0 21:00:23 10° NNE 21:01:20 11° NE 21:02:18 10° ENE
ASTRO E2 2.9 21:01:11 42° N 21:01:40 47° NNE 21:04:47 10° ESE
NOSS 2-3 (C) 4.3 20:58:17 10° S 21:02:58 50° ESE 21:06:43 10° NE
Iridium 921 4.3 21:02:02 10° N 21:05:16 77° E 21:08:31 10° S
Cosmos-2242 2.9 21:02:48 10° S 21:06:59 83° E 21:11:09 10° N
Cosmos 1934 Rocket 4.4 21:03:25 10° NNW 21:09:10 37° W 21:14:58 10° SSW
Cosmos 1484 Rocket 3.8 21:07:18 10° NNW 21:09:31 27° NW 21:09:31 27° NW
ATLAS 5 CENTAUR R/B 4.4 20:44:18 14° WNW 21:11:02 44° N 21:18:34 10° ENE
Cosmos 2263 Rocket 4.1 21:06:27 10° SSE 21:11:18 31° ESE 21:16:07 10° NE
CZ-3B R/B 3.1 21:12:16 30° WSW 21:13:19 34° SW 21:20:52 10° SSE
NOSS 2-2 (E) 3.6 21:07:47 10° SSW 21:13:28 75° WNW 21:17:31 10° NNE
Ariane H10-3 3.8 21:13:32 17° SSW 21:14:00 18° SSW 21:15:46 10° SE
Cosmos 1818 3.4 21:09:29 10° NNW 21:14:51 69° WSW 21:20:11 10° SSE
Cosmos 2151 2.8 21:14:06 10° N 21:18:14 71° W 21:22:24 10° S
Cosmos 1727 Rocket 4.4 21:14:33 10° SSW 21:20:21 40° W 21:26:06 10° NNW
Cosmos 2227 Rocket 2.2 21:15:03 10° SSW 21:20:35 59° WNW 21:26:06 10° N
NOSS 2-3 (D) 3.6 21:17:01 10° SSW 21:21:55 81° ESE 21:25:49 10° NNE
ARIANE 5 R/B 2.1 21:21:38 29° W 21:23:08 83° S 21:33:06 10° E
BREEZE-M DEB (TANK) 3.6 21:14:39 10° SSW 21:23:56 56° SE 21:27:05 10° NE
Cosmos 44 3.8 21:19:43 14° SW 21:24:00 45° WNW 21:28:57 10° N
Cosmos 1953 Rocket 3.5 21:20:24 10° N 21:24:48 74° W 21:29:15 10° S
SL-12 R/B(2) 4.1 21:17:36 10° SSW 21:24:54 77° ESE 21:32:37 10° NNE
NOSS 2-2 (D) 3.9 21:22:15 10° SW 21:27:39 50° WNW 21:31:34 10° N
Cosmos 2297 Rocket 3.4 21:27:28 18° W 21:28:12 19° WNW 21:32:04 10° NNW
Cosmos 1812 Rocket 3.6 21:25:40 10° S 21:30:06 82° E 21:34:30 10° N
SL-08 RB Rocket 3.9 21:27:20 10° N 21:31:32 44° WNW 21:35:45 10° SSW
Cosmos 371 Rocket 3.2 21:26:44 10° SSW 21:31:34 76° WNW 21:36:23 10° N
Cosmos 304 Rocket 3.7 21:31:01 10° SSW 21:35:47 83° W 21:40:33 10° N
Cosmos 2360 Rocket 3.0 21:32:39 10° NW 21:37:23 28° WSW 21:42:08 10° SSW
Cosmos 2123 Rocket 4.0 21:32:46 10° S 21:39:03 70° W 21:45:20 10° N
SEDSat Delta rocket 4.0 21:33:18 11° WSW 21:39:47 89° NW 21:46:18 10° NE
ARGOS 4.0 21:36:17 10° NNW 21:40:45 27° WNW 21:45:15 10° SW
Cosmos 1238 Rocket 4.3 21:37:59 10° SW 21:42:22 30° W 21:47:07 10° NNW
SJ-12 4.0 21:40:07 10° NNE 21:43:59 77° ESE 21:47:54 10° S
Meteor 1-26 Rocket 4.3 21:39:57 10° S 21:45:39 78° W 21:51:32 10° N
SWIFT 2.2 21:42:08 10° WNW 21:46:01 76° NNE 21:49:56 10° ESE
NOAA 12 4.4 21:43:12 10° N 21:48:09 45° WNW 21:53:10 10° SSW
Cosmos 2322 Rocket 3.7 21:46:50 10° WNW 21:49:48 15° WSW 21:52:47 10° SW
Cosmos 1076 Rocket 3.8 21:47:22 10° NNW 21:51:27 45° W 21:55:34 10° SSW
GPS 2-15 Rocket1 4.3 21:47:04 10° NW 21:51:33 38° NNE 21:56:00 10° E
BLOCK DM-SL R/B 3.6 21:45:17 10° W 21:51:58 46° S 21:55:38 10° ESE
ARIANE 5 R/B 0.6 21:51:39 10° W 21:53:33 75° S 21:56:28 10° E
Meteor 2-15 4.4 21:48:01 10° NNW 21:53:57 62° W 21:59:55 10° S
COSMO-SKYMED 1 3.6 21:50:32 10° SSE 21:54:45 51° ENE 21:58:57 10° N
Cosmos 2219 Rocket 2.5 21:49:36 10° NW 21:54:51 44° WSW 22:00:07 10° S
IRS-1C 4.3 21:49:54 10° N 21:55:01 49° WNW 22:00:08 10° SSW
Meteor 1-25 Rocket 4.4 21:50:08 10° N 21:55:43 82° E 22:01:24 10° S
Cosmos 2221 2.7 21:53:06 10° S 21:57:22 77° E 22:01:40 10° N
NOSS 2-3 (E) 4.4 21:53:51 10° SW 21:57:41 26° WNW 22:00:58 10° N
ATLAS CENTAUR R/B 3.5 21:54:05 10° N 21:57:53 32° ENE 22:01:41 10° SE
SL-19 R/B 4.3 21:57:03 10° NNE 22:02:19 88° ESE 22:07:50 10° SSW
ARIANE 3 DEB 4.1 21:58:44 10° WSW 22:05:07 42° S 22:08:48 10° ESE
CZ-3 R/B 4.4 22:01:51 10° NW 22:09:35 15° NNW 22:14:13 10° N
Maqsat-H 4.3 22:29:51 10° W 23:15:30 74° N 23:21:21 10° E
